Location: Cheching
(60.0667°N, 164.2167°W)
Time: 21:39:53
(UTC+00:00)

NOAA 15 - Pass Details

Date: 30 January 2021
Orbit: 798 x 812 km, 98.7° (Epoch: 07 March)

Event Time Altitude Azimuth Distance (km) Brightness Sun altitude
Rises 17:19:12 0° 22° (NNE) 3,348 8.0 -14.0°
Reaches altitude 10° 17:22:15 10° 40° (NE) 2,413 7.5 -13.6°
Maximum altitude 17:26:01 19° 85° (E) 1,842 7.5 -13.1°
Drops below altitude 10° 17:29:47 10° 130° (SE) 2,403 8.1 -12.7°
Sets 17:32:48 0° 148° (SSE) 3,329 8.5 -12.3°
